When you browse on this site, cookies collect data to enhance your experience and personalize the content and advertising you see.
Visit our Privacy Policy to learn more. By continuing to use the site, you agree to this use of cookies and data.
  • In Netherlands
  • List of Countries
  • For 7 days
  • Water Temperature
  • Satellite Maps
  • Weather Map
  • Weather Widgets
  • user-avatar
    Login

    Hourly Weather Jalalabad

    Today, 19 March, Tuesday

    Time Temperature Precipitation Wind Pressure Humidity
    00:00 +17°C° 0.8 mm 2 mps 709 mmHg 55%
    01:00 +16°C° 0.8 mm 2 mps 708 mmHg 58%
    02:00 +14°C° 0.8 mm 3 mps 708 mmHg 62%
    03:00 +14°C° 0.9 mm 3 mps 708 mmHg 64%
    04:00 +13°C° 0.9 mm 3 mps 707 mmHg 67%
    05:00 +13°C° 0.9 mm 3 mps 707 mmHg 69%
    06:00 +13°C° 0.2 mm 3 mps 707 mmHg 68%
    07:00 +14°C° 0.2 mm 2 mps 707 mmHg 66%
    08:00 +14°C° 0.2 mm 2 mps 707 mmHg 65%
    09:00 +14°C° 0 mm 3 mps 708 mmHg 62%
    10:00 +16°C° 0 mm 3 mps 708 mmHg 60%
    11:00 +17°C° 0 mm 3 mps 708 mmHg 57%
    12:00 +17°C° 0.1 mm 3 mps 708 mmHg 56%
    13:00 +18°C° 0.1 mm 2 mps 708 mmHg 55%
    14:00 +18°C° 0.1 mm 2 mps 708 mmHg 54%
    15:00 +18°C° 0.1 mm 2 mps 707 mmHg 54%
    16:00 +19°C° 0.1 mm 1 mps 707 mmHg 53%
    17:00 +19°C° 0.1 mm 1 mps 707 mmHg 53%
    18:00 +19°C° 0.1 mm 1 mps 708 mmHg 56%
    19:00 +18°C° 0.1 mm 1 mps 708 mmHg 58%
    20:00 +18°C° 0.1 mm 1 mps 708 mmHg 61%
    21:00 +16°C° 0 mm 1 mps 709 mmHg 60%
    22:00 +16°C° 0 mm 1 mps 709 mmHg 58%
    23:00 +16°C° 0 mm 1 mps 709 mmHg 57%

    Tomorrow, 20 March, Wednesday

    Time Temperature Precipitation Wind Pressure Humidity
    00:00 +15°C° 0 mm 1 mps 709 mmHg 54%
    01:00 +15°C° 0 mm 1 mps 709 mmHg 52%
    02:00 +14°C° 0 mm 1 mps 708 mmHg 50%
    03:00 +14°C° 0 mm 1 mps 708 mmHg 47%
    04:00 +13°C° 0 mm 2 mps 708 mmHg 44%
    05:00 +13°C° 0 mm 2 mps 708 mmHg 41%
    06:00 +14°C° 0 mm 2 mps 708 mmHg 38%
    07:00 +14°C° 0 mm 2 mps 709 mmHg 35%
    08:00 +15°C° 0 mm 2 mps 709 mmHg 31%
    09:00 +16°C° 0 mm 2 mps 709 mmHg 29%
    10:00 +17°C° 0 mm 2 mps 709 mmHg 27%
    11:00 +18°C° 0 mm 2 mps 708 mmHg 25%
    12:00 +18°C° 0 mm 2 mps 708 mmHg 26%
    13:00 +19°C° 0 mm 2 mps 708 mmHg 28%
    14:00 +19°C° 0 mm 2 mps 708 mmHg 29%
    15:00 +20°C° 0 mm 1 mps 708 mmHg 29%
    16:00 +20°C° 0 mm 1 mps 708 mmHg 30%
    17:00 +21°C° 0 mm 1 mps 708 mmHg 30%
    18:00 +20°C° 0 mm 1 mps 709 mmHg 34%
    19:00 +19°C° 0 mm 1 mps 709 mmHg 37%
    20:00 +18°C° 0 mm 1 mps 710 mmHg 40%
    21:00 +18°C° 0 mm 1 mps 710 mmHg 41%
    22:00 +16°C° 0 mm 1 mps 711 mmHg 41%
    23:00 +15°C° 0 mm 1 mps 711 mmHg 41%

    Day after tomorrow, 21 March, Thursday

    Time Temperature Precipitation Wind Pressure Humidity
    00:00 +15°C° 0 mm 1 mps 711 mmHg 41%
    01:00 +15°C° 0 mm 1 mps 711 mmHg 40%
    02:00 +14°C° 0 mm 1 mps 711 mmHg 39%
    03:00 +14°C° 0 mm 2 mps 711 mmHg 38%
    04:00 +13°C° 0 mm 2 mps 711 mmHg 36%
    05:00 +13°C° 0 mm 2 mps 711 mmHg 35%
    06:00 +14°C° 0 mm 2 mps 711 mmHg 32%
    07:00 +14°C° 0 mm 2 mps 711 mmHg 30%
    08:00 +15°C° 0 mm 2 mps 712 mmHg 27%
    09:00 +16°C° 0 mm 2 mps 712 mmHg 24%
    10:00 +18°C° 0 mm 2 mps 712 mmHg 21%
    11:00 +19°C° 0 mm 2 mps 712 mmHg 19%
    12:00 +20°C° 0 mm 2 mps 712 mmHg 19%
    13:00 +20°C° 0 mm 2 mps 711 mmHg 20%
    14:00 +21°C° 0 mm 2 mps 711 mmHg 21%
    15:00 +21°C° 0 mm 2 mps 711 mmHg 22%
    16:00 +21°C° 0 mm 2 mps 711 mmHg 23%
    17:00 +21°C° 0 mm 2 mps 711 mmHg 24%
    18:00 +20°C° 0 mm 2 mps 712 mmHg 26%
    19:00 +19°C° 0 mm 2 mps 712 mmHg 29%
    20:00 +19°C° 0 mm 1 mps 713 mmHg 31%
    21:00 +18°C° 0 mm 2 mps 713 mmHg 31%
    22:00 +17°C° 0 mm 2 mps 713 mmHg 31%
    23:00 +17°C° 0 mm 2 mps 714 mmHg 30%

    22 March, Friday

    Time Temperature Precipitation Wind Pressure Humidity
    00:00 +16°C° 0 mm 2 mps 713 mmHg 30%
    01:00 +16°C° 0 mm 2 mps 713 mmHg 30%
    02:00 +15°C° 0 mm 2 mps 713 mmHg 30%
    03:00 +15°C° 0 mm 2 mps 713 mmHg 30%
    04:00 +14°C° 0 mm 2 mps 713 mmHg 30%
    05:00 +14°C° 0 mm 2 mps 712 mmHg 30%
    06:00 +15°C° 0 mm 2 mps 713 mmHg 28%
    07:00 +15°C° 0 mm 2 mps 713 mmHg 26%
    08:00 +16°C° 0 mm 2 mps 713 mmHg 25%
    09:00 +18°C° 0 mm 1 mps 713 mmHg 22%
    10:00 +20°C° 0 mm 1 mps 713 mmHg 20%
    11:00 +21°C° 0 mm 1 mps 713 mmHg 18%
    12:00 +21°C° 0 mm 1 mps 713 mmHg 19%
    13:00 +22°C° 0 mm 1 mps 713 mmHg 19%
    14:00 +22°C° 0 mm 1 mps 712 mmHg 20%
    15:00 +22°C° 0 mm 1 mps 712 mmHg 21%
    16:00 +22°C° 0 mm 1 mps 712 mmHg 22%
    17:00 +22°C° 0 mm 1 mps 712 mmHg 23%
    18:00 +21°C° 0 mm 1 mps 712 mmHg 26%
    19:00 +20°C° 0 mm 1 mps 712 mmHg 29%
    20:00 +19°C° 0 mm 1 mps 712 mmHg 32%
    21:00 +19°C° 0 mm 1 mps 713 mmHg 31%
    22:00 +19°C° 0 mm 1 mps 713 mmHg 31%
    23:00 +18°C° 0 mm 2 mps 713 mmHg 31%

    23 March, Saturday

    Time Temperature Precipitation Wind Pressure Humidity
    00:00 +17°C° 0 mm 2 mps 713 mmHg 31%
    01:00 +17°C° 0 mm 2 mps 712 mmHg 32%
    02:00 +16°C° 0 mm 2 mps 712 mmHg 33%
    03:00 +16°C° 0 mm 2 mps 712 mmHg 34%
    04:00 +15°C° 0 mm 2 mps 711 mmHg 35%
    05:00 +15°C° 0 mm 2 mps 711 mmHg 36%
    06:00 +15°C° 0 mm 2 mps 711 mmHg 34%
    07:00 +16°C° 0 mm 2 mps 712 mmHg 33%
    08:00 +17°C° 0 mm 2 mps 712 mmHg 31%
    09:00 +18°C° 0 mm 2 mps 712 mmHg 29%
    10:00 +19°C° 0 mm 2 mps 712 mmHg 28%
    11:00 +20°C° 0 mm 2 mps 712 mmHg 26%
    12:00 +21°C° 0 mm 2 mps 712 mmHg 25%
    13:00 +23°C° 0 mm 2 mps 711 mmHg 24%
    14:00 +23°C° 0 mm 2 mps 711 mmHg 23%
    15:00 +24°C° 0 mm 2 mps 710 mmHg 23%
    16:00 +24°C° 0 mm 2 mps 710 mmHg 23%
    17:00 +24°C° 0 mm 2 mps 710 mmHg 22%
    18:00 +23°C° 0 mm 1 mps 710 mmHg 26%
    19:00 +22°C° 0 mm 1 mps 710 mmHg 29%
    20:00 +21°C° 0 mm 1 mps 711 mmHg 32%
    21:00 +20°C° 0 mm 1 mps 711 mmHg 33%
    22:00 +20°C° 0 mm 1 mps 711 mmHg 34%
    23:00 +19°C° 0 mm 1 mps 711 mmHg 34%

    24 March, Sunday

    Time Temperature Precipitation Wind Pressure Humidity
    00:00 +19°C° 0 mm 1 mps 711 mmHg 34%
    01:00 +18°C° 0 mm 1 mps 710 mmHg 34%
    02:00 +18°C° 0 mm 1 mps 710 mmHg 34%
    03:00 +18°C° 0 mm 1 mps 710 mmHg 34%
    04:00 +16°C° 0 mm 2 mps 710 mmHg 34%
    05:00 +16°C° 0 mm 2 mps 710 mmHg 35%
    06:00 +17°C° 0 mm 2 mps 710 mmHg 32%
    07:00 +18°C° 0 mm 2 mps 710 mmHg 30%
    08:00 +18°C° 0 mm 2 mps 711 mmHg 28%
    09:00 +19°C° 0 mm 2 mps 711 mmHg 26%
    10:00 +21°C° 0 mm 2 mps 711 mmHg 24%
    11:00 +23°C° 0 mm 2 mps 711 mmHg 22%
    12:00 +23°C° 0 mm 2 mps 711 mmHg 22%
    13:00 +24°C° 0 mm 2 mps 710 mmHg 22%
    14:00 +25°C° 0 mm 2 mps 710 mmHg 22%
    15:00 +25°C° 0 mm 2 mps 710 mmHg 22%
    16:00 +25°C° 0 mm 2 mps 710 mmHg 23%
    17:00 +25°C° 0 mm 1 mps 709 mmHg 23%
    18:00 +24°C° 0 mm 1 mps 710 mmHg 25%
    19:00 +23°C° 0 mm 1 mps 710 mmHg 27%
    20:00 +23°C° 0 mm 1 mps 711 mmHg 29%
    21:00 +22°C° 0 mm 1 mps 711 mmHg 31%
    22:00 +22°C° 0 mm 1 mps 711 mmHg 33%
    23:00 +22°C° 0 mm 1 mps 711 mmHg 34%
    Show more